This demonstration page uses our WeatherBlox Daily Observations layout. Learn more.

Left ArrowRight Arrow

Hourly Observations for May 30, 2019

Temp ( °F °C ) Dew Point ( °F °C ) Humidity (%) Winds ( mph kmh ) Pressure ( in mb ) Visibility ( mi km ) Precip ( " mm )
12:15 am 00:15 Cloudy 56 13.1 51 10.7 86 86 W 8 13 29.89 1012 10 16 N/A
12:35 am 00:35 Cloudy 55 13 51 10.7 86 86 W 7 11 29.89 1012 10 16 N/A
12:55 am 00:55 Cloudy 56 13.1 51 10.5 84 84 W 7 11 29.88 1012 10 16 N/A
1:15 am 01:15 Cloudy 56 13.1 50 10.1 82 82 W 8 13 29.88 1012 10 16 N/A
1:35 am 01:35 Cloudy 56 13.2 49 9.5 78 78 W 8 13 29.87 1012 10 16 N/A
1:55 am 01:55 Cloudy 56 13.5 49 9.4 76 76 WSW 7 11 29.86 1011 10 16 N/A
2:15 am 02:15 Cloudy 56 13.3 50 9.8 80 80 WSW 8 13 29.86 1011 10 16 N/A
2:35 am 02:35 Cloudy 56 13.1 50 9.8 81 81 WSW 10 17 29.86 1011 10 16 N/A
2:55 am 02:55 Cloudy 56 13.2 49 9.6 79 79 WSW 13 20 29.84 1011 10 16 N/A
3:15 am 03:15 Cloudy 56 13.1 49 9.6 79 79 W 14 22 29.85 1011 10 16 N/A
3:35 am 03:35 Cloudy 55 12.7 50 10 84 84 W 13 20 29.85 1011 10 16 N/A
3:55 am 03:55 Cloudy 55 13 49 9.5 79 79 W 14 22 29.85 1011 10 16 N/A
4:15 am 04:15 Cloudy 55 13 49 9.2 78 78 W 14 22 29.85 1011 10 16 N/A
4:35 am 04:35 Cloudy 55 13 48 9 77 77 WNW 8 13 29.86 1011 10 16 N/A
4:55 am 04:55 Cloudy 55 12.5 49 9.5 82 82 NW 9 15 29.87 1012 10 16 N/A
5:15 am 05:15 Cloudy 55 12.7 49 9.5 81 81 NNW 9 15 29.88 1012 10 16 N/A
5:35 am 05:35 Cloudy with Rain 53 11.9 51 10.3 90 90 N 9 15 29.89 1012 10 16 0.01 0.25
5:55 am 05:55 Cloudy 53 11.5 51 10.6 94 94 NW 7 11 29.89 1012 10 16 0.01 0.25
6:15 am 06:15 Cloudy 53 11.5 51 10.4 93 93 NW 7 11 29.89 1012 10 16 N/A
6:30 am 06:30 Mostly Cloudy 53 11.6 50 10 90 90 WNW 6 9 29.89 1012 10 16 N/A
6:55 am 06:55 Partly Cloudy 54 12 50 10 88 88 WNW 5 7 29.88 1012 10 16 N/A
7:15 am 07:15 Sunny 55 12.5 51 10.7 89 89 W 6 9 29.87 1012 10 16 N/A
7:35 am 07:35 Sunny 56 13.3 51 10.7 84 84 W 9 15 29.87 1012 10 16 N/A
7:55 am 07:55 Sunny 57 14 52 11.3 84 84 W 8 13 29.87 1011 10 16 N/A
8:10 am 08:10 Sunny 58 14.7 52 10.9 78 78 WNW 9 15 29.86 1011 10 16 N/A
8:35 am 08:35 Sunny 60 15.5 52 10.9 74 74 WNW 10 17 29.86 1011 10 16 N/A
8:55 am 08:55 Sunny 61 16.2 52 11.1 72 72 NW 15 24 29.85 1011 10 16 0.01 0.25
9:15 am 09:15 Sunny 62 16.6 52 11.2 71 71 NW 17 28 29.86 1011 10 16 N/A
9:35 am 09:35 undefined N/A N/A N/A undefined N/A N/A N/A N/A
9:55 am 09:55 Sunny with Thunderstorms 64 17.6 54 12.2 71 71 NNW 13 20 29.86 1011 10 16 0.03 0.76
10:15 am 10:15 Sunny 65 18.1 54 12.2 69 69 NW 13 20 29.85 1011 10 16 N/A
10:35 am 10:35 Sunny 66 19.1 55 13 68 68 NNW 14 22 29.84 1011 10 16 N/A
10:55 am 10:55 Sunny 68 20 55 12.8 63 63 NNW 10 17 29.84 1010 10 16 N/A
11:15 am 11:15 Sunny 69 20.7 55 12.8 61 61 NNW 15 24 29.84 1011 10 16 N/A
11:35 am 11:35 Sunny 70 21.3 55 13 59 59 NNW 13 20 29.84 1010 10 16 N/A
11:55 am 11:55 Sunny 71 21.7 55 12.8 57 57 NNW 12 19 29.83 1010 10 16 N/A
12:15 pm 12:15 Sunny 73 22.5 55 12.7 54 54 NW 9 15 29.83 1010 10 16 N/A
12:35 pm 12:35 Sunny 73 22.9 57 13.7 56 56 NNW 10 17 29.83 1010 10 16 N/A
12:55 pm 12:55 Partly Cloudy 73 23 52 10.9 47 47 N 9 15 29.83 1010 10 16 N/A
1:15 pm 13:15 Sunny 74 23.5 53 11.5 47 47 NNW 10 17 29.83 1010 10 16 N/A
1:35 pm 13:35 Sunny 74 23.6 52 11.1 45 45 NW 7 11 29.83 1010 10 16 N/A
1:55 pm 13:55 Sunny 75 24 54 12.3 48 48 NW 9 15 29.82 1010 10 16 N/A
2:15 pm 14:15 Partly Cloudy 75 24 54 12 47 47 NNW 8 13 29.82 1010 10 16 N/A
2:35 pm 14:35 Sunny 76 24.4 53 11.5 44 44 NW 7 11 29.82 1010 10 16 N/A
2:55 pm 14:55 Partly Cloudy 76 24.4 53 11.6 45 45 N 5 7 29.82 1010 10 16 N/A
3:15 pm 15:15 Sunny 76 24.5 52 11.3 44 44 NNW 6 9 29.82 1010 10 16 N/A
3:35 pm 15:35 Sunny 76 24.5 51 10.7 42 42 N 12 19 29.82 1010 10 16 N/A
3:55 pm 15:55 Sunny 76 24.3 50 10.1 41 41 N 12 19 29.82 1010 10 16 N/A
4:15 pm 16:15 Sunny 75 24.1 52 10.9 44 44 NNE 8 13 29.82 1010 10 16 N/A
4:35 pm 16:35 Sunny 76 24.3 51 10.7 42 42 N 7 11 29.82 1010 10 16 N/A
4:55 pm 16:55 Sunny 75 24.1 52 11.1 44 44 NNE 5 7 29.82 1010 10 16 N/A
5:15 pm 17:15 Sunny 75 24.1 53 11.7 46 46 NNE 5 7 29.82 1010 10 16 N/A
5:35 pm 17:35 Sunny 75 23.9 51 10.6 43 43 NNE 8 13 29.83 1010 10 16 N/A
5:55 pm 17:55 Sunny 75 23.8 52 11.3 46 46 NNE 5 7 29.83 1010 10 16 N/A
6:15 pm 18:15 Sunny 74 23.4 55 12.6 51 51 NNE 9 15 29.83 1010 10 16 N/A
6:35 pm 18:35 Sunny 73 22.8 54 12 51 51 NNE 8 13 29.83 1010 10 16 N/A
6:55 pm 18:55 Hazy 72 22.4 53 11.8 51 51 NE 8 13 29.85 1011 3 5 N/A
7:15 pm 19:15 Sunny 71 21.9 55 12.9 57 57 NNE 6 9 29.85 1011 10 16 N/A
7:35 pm 19:35 Sunny 70 21.3 56 13.1 60 60 NNE 6 9 29.87 1011 10 16 N/A
7:55 pm 19:55 Sunny 70 21.1 56 13.5 62 62 N N/A 29.87 1011 10 16 N/A
8:15 pm 20:15 Sunny 70 21.3 54 12.4 57 57 N N/A 29.88 1012 10 16 N/A
8:35 pm 20:35 Sunny 67 19.5 56 13.6 69 69 NE 3 6 29.89 1012 10 16 N/A
8:55 pm 20:55 Sunny 66 19.1 56 13.6 71 71 N N/A 29.89 1012 10 16 N/A
9:15 pm 21:15 Clear 66 18.7 56 13.5 72 72 N N/A 29.91 1013 10 16 N/A
9:35 pm 21:35 Clear 64 17.7 56 13.4 76 76 N N/A 29.92 1013 10 16 N/A
9:55 pm 21:55 Clear 63 17.3 55 12.8 75 75 N N/A 29.92 1013 10 16 N/A
10:15 pm 22:15 Clear 62 16.5 55 12.8 79 79 N N/A 29.94 1014 10 16 N/A
10:35 pm 22:35 Clear 60 15.6 56 13.2 86 86 N N/A 29.94 1014 10 16 N/A
10:55 pm 22:55 Clear 59 15.1 56 13.2 89 89 N N/A 29.96 1015 10 16 N/A
11:15 pm 23:15 Clear 60 15.5 56 13.6 89 89 N N/A 29.95 1014 10 16 N/A
11:35 pm 23:35 Clear 59 15.2 55 12.6 85 85 N N/A 29.96 1014 10 16 N/A
11:55 pm 23:55 Clear 60 15.6 55 12.6 82 82 N N/A 29.95 1014 10 16 N/A

Powered by AerisWeather